Flag for Germany Weather past 2 weeks in Bad Hersfeld, Hesse, Germany

Now
52 °F

Passing clouds.


Feels Like: 51 °F
Forecast: 50 / 61 °F
Wind: 5 mph from South

Location: Fritzlar Airport

Current Time: Sep 4, 2015 at 11:51:22 PM

Latest Report: Sep 4, 2015 at 10:20 PM


Visibility: N/A

Pressure: 29.92 "Hg

Humidity: 77%

Dew point: 45 °F

Location of Bad HersfeldLocation

Historic Weather in Bad Hersfeld — Graph

°F

Bad Hersfeld temperature yesterday

Maximum temperature yesterday: 66 °F (at 4:20 PM)
Minimum temperature yesterday: 52 °F (at 6:20 AM)
Average temperature yesterday: 57 °F

Past Weeks' High & Low Weather Summary

 TemperatureHumidityPressure
High88 °F (Aug 30, 3:20 PM)100% (Aug 21, 2:20 AM)30.30 "Hg (Aug 21, 2:20 AM)
Low48 °F (Sep 2, 6:20 AM)30% (Aug 22, 3:20 PM)29.65 "Hg (Aug 24, 2:20 PM)
Average64 °F75%29.98 "Hg
* Reported Aug 20 10:20 PM — Sep 4 10:20 PM, Bad Hersfeld, Weather by CustomWeather, © 2015

Note: Actual official high and low records may vary slightly from our data, if they occured in-between our weather recording intervals... More about our weather records

Advertising

Bad Hersfeld weather history for previous 24 hours

 ConditionsComfort  
Time TempWeatherWind HumidityBarometerVisibility
10:20 PM
Fri, Sep 4
52 °FPassing clouds.5 mph77%29.92 "HgN/A
9:20 PM54 °FPassing clouds.7 mph77%29.95 "HgN/A
8:20 PM57 °FPartly sunny.8 mph67%29.92 "HgN/A
7:20 PM59 °FPartly sunny.15 mph63%29.92 "HgN/A
6:20 PM59 °FPartly sunny.10 mph63%29.92 "HgN/A
5:20 PM61 °FPartly sunny.14 mph55%29.95 "HgN/A
4:20 PM63 °FPartly sunny.15 mph52%29.95 "HgN/A
3:20 PM63 °FBroken clouds.14 mph52%29.95 "HgN/A
2:20 PM59 °FPartly sunny.16 mph59%29.98 "HgN/A
1:20 PM61 °FPartly sunny.13 mph52%29.98 "HgN/A
12:20 PM59 °FPartly sunny.13 mph59%29.98 "HgN/A
12:00 PM59 °FScattered clouds.9 mph63%29.98 "HgN/A
11:20 AM59 °FScattered clouds.10 mph63%29.98 "HgN/A
10:20 AM57 °FScattered clouds.12 mph67%29.98 "HgN/A
9:20 AM55 °FPassing clouds.6 mph77%29.98 "HgN/A
8:20 AM52 °FScattered clouds.5 mph88%29.98 "HgN/A
7:20 AM50 °FPassing clouds.5 mph94%29.95 "HgN/A
6:20 AM50 °FFog.3 mph94%29.95 "HgN/A
5:20 AM50 °FPartly cloudy.3 mph94%29.95 "HgN/A
4:20 AM50 °FPartly cloudy.5 mph94%29.95 "HgN/A
3:20 AM52 °FLight rain. Passing clouds.2 mph88%29.95 "HgN/A
2:20 AM50 °FPassing clouds.2 mph94%29.98 "HgN/A
1:20 AM50 °FPassing clouds.2 mph94%29.98 "HgN/A
12:20 AM50 °FPassing clouds.5 mph88%29.95 "HgN/A
11:20 PM
Thu, Sep 3
52 °FPassing clouds.5 mph88%29.95 "HgN/A
Weather by CustomWeather, © 2015

See weather overviewHow to use our weather pages